User: anonymous   Login
Location: Morehead State University
(38.1872°N, 83.4339°W)
Time: 19:17:23
(UTC-04:00)
Language:

Okean 2 - Orbit

View from above orbital plane
View from above orbital plane
View from above satellite
View from above satellite

Ground track
Ground track

The orbit data is extracted from the following two-line orbital elements,

1 20510U 90018A   15186.86081938  .00001621  00000-0  13562-3 0  9990
2 20510 082.5171 134.9664 0011372 221.2502 192.3085 14.97814164374776
Epoch (UTC): 05 July 2015 20:39:34
Eccentricity: 0.0011372
inclination: 82.5171°
perigee height: 566 km
apogee height: 581 km
right ascension of ascending node: 134.9664°
argument of perigee: 221.2502°
revolutions per day: 14.97814164
mean anomaly at epoch: 192.3085°
orbit number at epoch: 37477

The dashed part of the orbit path shows where the satellite is in the earth's shadow,  

DLR